Lambertville, MI

11:42 PM EDT on April 26, 2017 (GMT -0400)
Lambertville

Weather History for KDUH - February, 2013

Change the Weather History Date:

Wednesday, February 6, 2013

  Actual Average (KTOL) Record (KTOL)
Temperature  
Mean Temperature 20 °F -  
Max Temperature 32 °F 28 °F 61 °F (1938)
Min Temperature 9 °F 14 °F -6 °F (1977)
Degree Days  
Heating Degree Days 44    
Moisture  
Dew Point 13 °F    
Average Humidity 64    
Maximum Humidity 87    
Minimum Humidity 45    
Precipitation  
Precipitation 0.00 in - - ()
Sea Level Pressure  
Sea Level Pressure 30.21 in    
Wind  
Wind Speed 4 mph (WNW)    
Max Wind Speed 15 mph    
Max Gust Speed 17 mph    
Visibility 10 miles    
Events      
Averages and records for this station are not official NWS values.
T = Trace of Precipitation, MM = Missing Value Source: NWS Daily Summary

Daily Weather History Graph

Daily Weather History Graph

Search for Another Location

Airport or City:

Trip Planner

Search our weather history database for the weather conditions in past years. The results will help you decide how hot, cold, wet, or windy it might be!

Date:

Astronomy

Feb. 06, 2013 Rise Set
Actual Time 7:41 AM EST 5:56 PM EST
Civil Twilight 7:12 AM EST 6:25 PM EST
Nautical Twilight 6:39 AM EST 6:58 PM EST
Astronomical Twilight 6:06 AM EST 7:31 PM EST
Moon 4:25 AM EST (2/6) 2:12 PM EST (2/6)
Length of Visible Light 11h 13m
Length of Day
10h 15m
Waning Crescent, 17% of the Moon is Illuminated
Feb 6
Waning Crescent
Feb 10
New
Feb 17
First Quarter
Feb 25
Full
Mar 4
Last Quarter

Hourly Weather History & Observations

Time (EST) Temp. Windchill Dew Point Humidity Pressure Visibility Wind Dir Wind Speed Gust Speed Precip Events Conditions
12:16 AM 29.7 °F 23.7 °F 25.5 °F 85% 29.96 in 5.0 mi West 5.8 mph - N/A   Overcast
12:35 AM 30.0 °F 22.4 °F 25.5 °F 83% 29.98 in 7.0 mi West 8.1 mph - N/A   Overcast
12:55 AM 30.0 °F 21.1 °F 24.4 °F 80% 29.98 in 10.0 mi NW 10.4 mph 16.1 mph N/A   Overcast
1:15 AM 29.8 °F 21.5 °F 22.1 °F 73% 30.00 in 10.0 mi NNW 9.2 mph 17.3 mph N/A   Overcast
1:35 AM 29.3 °F 21.5 °F 20.3 °F 69% 30.01 in 10.0 mi NW 8.1 mph 16.1 mph N/A   Overcast
2:15 AM 28.9 °F 22.8 °F 19.9 °F 69% 30.03 in 10.0 mi WNW 5.8 mph - N/A   Overcast
2:35 AM 28.8 °F 22.6 °F 19.8 °F 69% 30.04 in 10.0 mi NW 5.8 mph - N/A   Overcast
3:15 AM 27.9 °F 21.5 °F 19.6 °F 71% 30.07 in 10.0 mi NNW 5.8 mph - N/A   Overcast
3:35 AM 26.8 °F 14.9 °F 18.7 °F 72% 30.08 in 10.0 mi NNW 15.0 mph - N/A   Overcast
3:55 AM 26.2 °F 19.6 °F 16.7 °F 67% 30.09 in 10.0 mi NW 5.8 mph - N/A   Overcast
4:15 AM 24.8 °F 16.9 °F 12.0 °F 58% 30.10 in 10.0 mi NW 6.9 mph - N/A   Scattered Clouds
4:35 AM 22.6 °F 15.3 °F 11.3 °F 62% 30.11 in 10.0 mi WNW 5.8 mph - N/A   Clear
4:55 AM 22.8 °F 16.7 °F 11.3 °F 61% 30.13 in 10.0 mi NW 4.6 mph - N/A   Mostly Cloudy
5:15 AM 21.9 °F 15.7 °F 10.4 °F 61% 30.14 in 10.0 mi NW 4.6 mph - N/A   Mostly Cloudy
5:36 AM 19.6 °F 14.5 °F 9.1 °F 64% 30.14 in 10.0 mi NW 3.5 mph - N/A   Scattered Clouds
5:55 AM 16.7 °F - 7.7 °F 68% 30.15 in 10.0 mi Calm Calm - N/A   Clear
6:15 AM 14.0 °F - 7.9 °F 77% 30.16 in 10.0 mi Calm Calm - N/A   Clear
6:35 AM 10.8 °F - 4.5 °F 76% 30.17 in 10.0 mi Calm Calm - N/A   Clear
6:55 AM 9.3 °F - 5.2 °F 83% 30.19 in 10.0 mi Calm Calm - N/A   Clear
7:15 AM 9.0 °F - 5.2 °F 85% 30.20 in 10.0 mi Calm Calm - N/A   Clear
7:35 AM 10.6 °F - 7.2 °F 86% 30.22 in 10.0 mi Calm Calm - N/A   Clear
7:55 AM 9.1 °F - 5.9 °F 87% 30.22 in 10.0 mi Calm Calm - N/A   Clear
8:15 AM 9.1 °F - 6.1 °F 87% 30.24 in 10.0 mi Calm Calm - N/A   Clear
8:35 AM 9.3 °F - 5.7 °F 85% 30.25 in 10.0 mi Calm Calm - N/A   Clear
8:55 AM 10.4 °F - 5.9 °F 82% 30.25 in 10.0 mi Calm Calm - N/A   Clear
9:16 AM 16.0 °F - 10.4 °F 79% 30.25 in 10.0 mi Calm Calm - N/A   Clear
9:35 AM 17.4 °F - 9.7 °F 72% 30.25 in 10.0 mi Calm Calm - N/A   Clear
10:15 AM 26.6 °F - 10.8 °F 51% 30.25 in 10.0 mi Calm Calm - N/A   Clear
10:35 AM 26.4 °F - 10.8 °F 52% 30.26 in 10.0 mi Calm Calm - N/A   Clear
10:56 AM 27.3 °F 22.0 °F 11.8 °F 52% 30.27 in 10.0 mi NW 4.6 mph - N/A   Clear
11:15 AM 27.5 °F 22.2 °F 12.0 °F 52% 30.27 in 10.0 mi NW 4.6 mph - N/A   Clear
11:35 AM 28.2 °F 24.4 °F 13.5 °F 54% 30.27 in 10.0 mi WNW 3.5 mph - N/A   Clear
11:55 AM 29.3 °F 25.6 °F 13.1 °F 51% 30.27 in 10.0 mi WNW 3.5 mph - N/A   Clear
12:15 PM 27.7 °F 21.3 °F 13.6 °F 56% 30.27 in 10.0 mi NNW 5.8 mph - N/A   Clear
12:36 PM 28.4 °F 23.3 °F 14.4 °F 56% 30.27 in 10.0 mi NW 4.6 mph - N/A   Clear
12:55 PM 29.8 °F 24.9 °F 13.8 °F 51% 30.26 in 10.0 mi WNW 4.6 mph - N/A   Clear
1:15 PM 30.4 °F 24.5 °F 14.0 °F 51% 30.27 in 10.0 mi WNW 5.8 mph - N/A   Clear
1:36 PM 30.2 °F 25.4 °F 14.9 °F 53% 30.28 in 10.0 mi NW 4.6 mph - N/A   Clear
1:55 PM 30.6 °F 25.8 °F 13.8 °F 50% 30.27 in 10.0 mi WNW 4.6 mph - N/A   Clear
2:16 PM 30.7 °F 27.3 °F 13.6 °F 49% 30.26 in 10.0 mi NW 3.5 mph - N/A   Clear
2:35 PM 31.1 °F 27.7 °F 13.8 °F 49% 30.25 in 10.0 mi WNW 3.5 mph - N/A   Clear
2:55 PM 30.6 °F 24.7 °F 14.0 °F 50% 30.25 in 10.0 mi NNW 5.8 mph - N/A   Clear
3:15 PM 30.9 °F - 13.6 °F 49% 30.25 in 10.0 mi Calm Calm - N/A   Clear
3:35 PM 30.0 °F 26.5 °F 13.1 °F 49% 30.25 in 10.0 mi NNW 3.5 mph - N/A   Clear
3:55 PM 30.9 °F 27.5 °F 13.1 °F 48% 30.26 in 10.0 mi WNW 3.5 mph - N/A   Clear
4:15 PM 31.8 °F - 12.4 °F 45% 30.26 in 10.0 mi Calm Calm - N/A   Clear
4:35 PM 32.0 °F - 12.6 °F 45% 30.26 in 10.0 mi Calm Calm - N/A   Clear
4:56 PM 30.7 °F - 12.6 °F 47% 30.25 in 10.0 mi Calm Calm - N/A   Clear
5:15 PM 30.0 °F 22.4 °F 12.6 °F 48% 30.27 in 10.0 mi SSW 8.1 mph - N/A   Clear
5:35 PM 29.3 °F 21.5 °F 12.6 °F 50% 30.27 in 10.0 mi South 8.1 mph - N/A   Clear
5:56 PM 27.7 °F 21.3 °F 12.2 °F 52% 30.28 in 10.0 mi SSW 5.8 mph - N/A   Clear
6:15 PM 27.5 °F 23.6 °F 11.8 °F 52% 30.28 in 10.0 mi South 3.5 mph - N/A   Clear
6:36 PM 27.0 °F 23.0 °F 11.8 °F 53% 30.29 in 10.0 mi South 3.5 mph - N/A   Clear
6:55 PM 26.4 °F - 11.8 °F 54% 30.29 in 10.0 mi Calm Calm - N/A   Clear
7:15 PM 24.3 °F - 12.2 °F 60% 30.29 in 10.0 mi Calm Calm - N/A   Clear
7:35 PM 21.4 °F - 12.4 °F 68% 30.30 in 10.0 mi Calm Calm - N/A   Clear
7:55 PM 20.3 °F - 11.8 °F 70% 30.30 in 10.0 mi Calm Calm - N/A   Clear
8:15 PM 19.9 °F - 11.8 °F 71% 30.29 in 10.0 mi Calm Calm - N/A   Clear
8:35 PM 20.5 °F 15.6 °F 12.7 °F 72% 30.28 in 10.0 mi SE 3.5 mph - N/A   Clear
8:55 PM 21.6 °F - 12.7 °F 69% 30.28 in 10.0 mi Calm Calm - N/A   Clear
9:16 PM 21.9 °F - 14.4 °F 73% 30.28 in 10.0 mi Calm Calm - N/A   Clear
9:35 PM 23.4 °F 18.9 °F 14.9 °F 70% 30.26 in 10.0 mi ESE 3.5 mph - N/A   Clear
9:55 PM 23.9 °F 19.5 °F 15.1 °F 69% 30.27 in 10.0 mi SE 3.5 mph - N/A   Clear
10:15 PM 24.6 °F 18.8 °F 14.0 °F 64% 30.25 in 10.0 mi SE 4.6 mph - N/A   Clear
10:35 PM 24.8 °F 17.9 °F 14.0 °F 64% 30.23 in 10.0 mi SE 5.8 mph - N/A   Mostly Cloudy
10:56 PM 25.7 °F 19.0 °F 14.5 °F 63% 30.23 in 10.0 mi SE 5.8 mph - N/A   Mostly Cloudy
11:15 PM 25.3 °F 18.5 °F 14.7 °F 64% 30.22 in 10.0 mi SE 5.8 mph - N/A   Scattered Clouds
11:35 PM 24.8 °F - 14.5 °F 65% 30.23 in 10.0 mi Calm Calm - N/A   Scattered Clouds
11:55 PM 23.7 °F - 15.3 °F 70% 30.25 in 10.0 mi Calm Calm - N/A   Overcast